Location: Bucquoy
(50.1391°N, 2.7097°E)
Time: 01:18:20
(UTC+00:00)

SL-16 R/B - Pass Details

Date: 06 May 2021
Orbit: 984 x 1007 km, 99.5° (Epoch: 22 June)

Event Time Altitude Azimuth Distance (km) Brightness Sun altitude
Exits shadow 00:21:05 13° 125° (SE) 2,574 4.5 -22.9°
Maximum altitude 00:26:12 39° 61° (ENE) 1,462 3.7 -22.7°
Drops below altitude 10° 00:31:57 10° 355° (N) 2,794 5.9 -22.5°
Sets 00:34:35 0° 348° (NNW) 3,747 6.7 -22.4°
